Location: Amherst
(42.5000°N, 72.5000°W)
Time: 06:53:20
(UTC-05:00)

ISS - Visible Passes

Search period start: 22 January 2018 00:00
Search period end: 01 February 2018 00:00
Orbit: 402 x 407 km, 51.6° (Epoch: 22 January)

Date Brightness Start Highest point End Pass type
(mag) Time Alt. Az. Time Alt. Az. Time Alt. Az.
23 Jan -1.5 18:30:20 10° S 18:31:10 13° SSE 18:31:10 13° SSE visible
24 Jan -1.4 19:13:02 10° SW 19:14:08 20° SW 19:14:08 20° SW visible
25 Jan -3.1 18:20:59 10° SSW 18:24:00 36° SE 18:24:19 35° SE visible
26 Jan -2.1 17:29:22 10° S 17:31:49 20° SE 17:34:16 10° E visible
26 Jan -2.3 19:04:51 10° WSW 19:07:05 36° W 19:07:05 36° W visible
27 Jan -3.9 18:12:24 10° SW 18:15:40 88° SE 18:17:05 31° ENE visible
28 Jan -2.2 18:57:00 10° W 18:59:40 29° NNW 18:59:40 29° NNW visible
29 Jan -3.0 18:04:16 10° WSW 18:07:24 44° NNW 18:09:32 18° NE visible
29 Jan -0.4 19:42:11 10° NW 19:42:11 10° NW 19:42:11 10° NW visible
30 Jan -1.9 18:49:18 10° WNW 18:51:50 20° NNW 18:51:59 20° N visible
31 Jan -2.2 17:56:25 10° W 17:59:14 26° NNW 18:01:44 12° NE visible
31 Jan -0.6 19:34:20 10° NW 19:34:23 10° NW 19:34:23 10° NW visible
